Location: Chateh
(58.6667°N, 118.6000°W)
Time: 09:15:20
(UTC+00:00)

O/OREOS (USA 219) - Pass Details

Date: 14 December 2023
Orbit: 621 x 646 km, 72.0° (Epoch: 22 May)

Event Time Altitude Azimuth Distance (km) Brightness Sun altitude
Exits shadow 14:34:40 19° 320° (NW) 1,510 ? -14.0°
Maximum altitude 14:37:52 71° 239° (WSW) 673 ? -13.6°
Drops below altitude 10° 14:42:22 10° 156° (SSE) 2,016 ? -13.1°
Sets 14:44:38 0° 154° (SSE) 2,925 ? -12.8°
